Temp
-31 -31 -30 -30 -29 -29 -28 -28 -28 -28 -27 -27 -27 -27 -27 -27 -27 -27 -27 -27 -27 -26 -26 -26 -27 -27 -27 -27 -26 -26 -26 -26 -26 -26 -26 -26 -26 -26 -26 -26 -26 -25 -25 -25 -25 -25 -25 -25 -25 -25 -25 -25 -25 -25 -25 -25 -25 -24 -24 -24 -24 -24 -24
-32 -31 -31 -30 -30 -30 -29 -29 -28 -28 -28 -28 -28 -28 -27 -28 -28 -28 -28 -27 -27 -27 -27 -27 -27 -27 -27 -27 -26 -26 -26 -26 -26 -26 -26 -26 -26 -26 -26 -26 -26 -26 -26 -26 -25 -25 -25 -26 -26 -25 -25 -25 -25 -25 -25 -25 -25 -25 -25 -25 -25 -25 -25
-32 -32 -31 -31 -31 -30 -30 -29 -29 -29 -29 -28 -28 -28 -28 -28 -28 -28 -28 -28 -28 -28 -28 -28 -28 -28 -27 -27 -27 -26 -26 -26 -26 -26 -26 -26 -26 -26 -26 -26 -26 -26 -26 -26 -26 -25 -25 -26 -26 -26 -26 -26 -26 -26 -26 -26 -26 -26 -25 -25 -25 -25 -25
-32 -32 -32 -31 -31 -31 -30 -30 -30 -29 -29 -29 -29 -29 -29 -29 -28 -28 -28 -28 -28 -28 -28 -28 -28 -28 -28 -28 -27 -27 -27 -27 -26 -26 -26 -26 -26 -26 -26 -26 -26 -26 -26 -26 -26 -26 -25 -26 -26 -26 -26 -26 -26 -26 -27 -26 -26 -26 -26 -26 -25 -25 -25
-31 -31 -31 -31 -31 -31 -31 -31 -31 -30 -30 -30 -30 -29 -29 -29 -29 -29 -29 -29 -29 -28 -28 -28 -28 -28 -28 -28 -28 -28 -27 -27 -27 -26 -26 -26 -26 -26 -26 -26 -26 -26 -26 -26 -26 -26 -25 -26 -26 -26 -26 -26 -26 -27 -27 -27 -26 -26 -26 -26 -26 -26 -26
-31 -31 -31 -31 -31 -31 -31 -31 -31 -31 -31 -31 -30 -30 -30 -30 -30 -30 -30 -29 -29 -29 -29 -29 -28 -28 -28 -28 -28 -28 -28 -27 -27 -26 -26 -26 -26 -26 -26 -26 -26 -26 -26 -26 -26 -26 -26 -26 -26 -26 -26 -26 -26 -27 -27 -26 -26 -26 -26 -26 -26 -26 -26
-30 -30 -31 -31 -31 -31 -31 -31 -31 -31 -31 -31 -31 -31 -31 -31 -30 -30 -30 -30 -30 -30 -30 -29 -29 -29 -29 -28 -28 -28 -28 -28 -27 -27 -26 -26 -27 -27 -26 -26 -26 -26 -26 -26 -26 -26 -26 -26 -26 -26 -26 -27 -27 -26 -26 -26 -26 -26 -26 -26 -26 -26 -26
-30 -30 -30 -30 -30 -31 -31 -31 -31 -31 -31 -31 -31 -31 -31 -31 -31 -31 -30 -30 -31 -31 -30 -30 -30 -29 -29 -29 -29 -29 -28 -28 -28 -27 -27 -26 -27 -27 -27 -27 -27 -27 -26 -26 -26 -26 -26 -26 -26 -26 -26 -27 -27 -26 -26 -26 -26 -26 -26 -26 -26 -26 -26
-30 -30 -30 -30 -30 -30 -30 -31 -31 -31 -31 -31 -31 -31 -31 -31 -31 -31 -31 -31 -31 -31 -31 -30 -30 -30 -29 -29 -29 -29 -29 -28 -28 -28 -27 -27 -27 -27 -27 -27 -27 -27 -27 -27 -26 -26 -26 -26 -26 -26 -26 -27 -27 -26 -26 -26 -26 -26 -27 -27 -27 -27 -27
-30 -30 -30 -31 -31 -31 -31 -31 -31 -31 -31 -31 -31 -31 -31 -31 -31 -30 -30 -31 -31 -31 -31 -31 -31 -30 -30 -29 -29 -29 -29 -29 -28 -28 -28 -27 -27 -27 -27 -27 -27 -27 -27 -27 -26 -26 -26 -26 -26 -26 -27 -27 -27 -26 -26 -26 -27 -26 -27 -27 -27 -27 -27
-30 -30 -31 -31 -31 -31 -32 -32 -32 -32 -32 -31 -31 -31 -31 -31 -31 -31 -31 -31 -31 -31 -31 -31 -31 -31 -30 -30 -29 -29 -29 -29 -29 -29 -28 -28 -28 -28 -28 -27 -27 -27 -27 -27 -27 -27 -27 -27 -27 -27 -27 -27 -27 -27 -27 -27 -27 -26 -27 -27 -27 -27 -27
-30 -31 -31 -32 -32 -32 -32 -32 -32 -32 -32 -32 -32 -32 -32 -32 -32 -32 -31 -31 -31 -31 -31 -31 -31 -31 -31 -30 -30 -29 -29 -30 -30 -29 -29 -28 -28 -28 -28 -28 -27 -27 -27 -27 -27 -27 -27 -27 -27 -27 -27 -27 -27 -27 -27 -27 -27 -27 -27 -27 -27 -27 -27
-31 -32 -32 -32 -32 -32 -32 -33 -33 -33 -33 -33 -33 -34 -33 -33 -33 -33 -33 -32 -32 -32 -32 -32 -31 -31 -31 -31 -30 -30 -29 -30 -30 -30 -29 -29 -28 -28 -28 -28 -27 -27 -27 -27 -27 -27 -27 -27 -28 -28 -28 -27 -27 -27 -27 -27 -27 -27 -27 -27 -27 -27 -27
-32 -32 -33 -33 -33 -33 -33 -33 -33 -34 -34 -34 -34 -35 -35 -35 -35 -34 -34 -34 -34 -34 -33 -32 -32 -31 -31 -31 -31 -30 -30 -30 -30 -30 -29 -29 -29 -28 -28 -28 -27 -27 -27 -27 -27 -28 -28 -28 -28 -28 -28 -28 -27 -27 -27 -27 -27 -27 -27 -27 -27 -27 -27
-33 -33 -33 -34 -34 -34 -34 -34 -34 -35 -35 -35 -35 -36 -36 -36 -36 -35 -35 -35 -35 -35 -35 -34 -33 -32 -31 -31 -31 -31 -30 -30 -30 -30 -30 -29 -29 -29 -28 -28 -28 -28 -28 -28 -28 -28 -28 -28 -28 -28 -28 -28 -28 -28 -28 -28 -28 -27 -27 -27 -27 -27 -27
-33 -34 -34 -35 -35 -35 -35 -35 -36 -36 -36 -36 -36 -36 -36 -36 -36 -35 -35 -35 -35 -35 -35 -35 -34 -33 -32 -32 -31 -31 -31 -30 -30 -30 -30 -30 -29 -29 -29 -28 -28 -29 -29 -28 -28 -28 -28 -28 -28 -28 -28 -28 -28 -28 -28 -28 -28 -28 -28 -28 -28 -27 -28
-34 -35 -35 -35 -36 -36 -36 -36 -36 -36 -36 -36 -36 -36 -36 -36 -35 -35 -35 -35 -35 -35 -35 -35 -35 -34 -33 -33 -32 -32 -31 -31 -31 -30 -30 -30 -30 -29 -29 -29 -29 -29 -29 -28 -28 -29 -29 -28 -28 -28 -28 -28 -28 -28 -28 -28 -28 -28 -28 -28 -28 -28 -28
-35 -36 -36 -36 -36 -36 -36 -36 -36 -36 -36 -36 -36 -36 -35 -35 -35 -35 -35 -35 -35 -35 -35 -35 -35 -35 -34 -33 -33 -32 -32 -31 -31 -31 -30 -30 -30 -29 -29 -29 -29 -29 -29 -29 -29 -29 -29 -29 -28 -28 -28 -28 -28 -28 -28 -28 -28 -28 -28 -28 -28 -28 -28
-36 -36 -36 -36 -36 -36 -36 -36 -36 -36 -36 -35 -35 -35 -35 -35 -34 -34 -34 -35 -35 -35 -35 -35 -35 -35 -34 -34 -33 -33 -32 -32 -32 -31 -31 -30 -30 -29 -29 -30 -30 -30 -29 -29 -29 -29 -29 -29 -28 -28 -28 -29 -29 -29 -28 -28 -28 -28 -28 -28 -28 -28 -28
-36 -36 -36 -36 -36 -36 -36 -36 -35 -35 -35 -35 -35 -35 -34 -34 -34 -34 -34 -34 -34 -34 -35 -35 -35 -34 -34 -34 -34 -33 -33 -33 -32 -32 -31 -30 -30 -30 -30 -30 -30 -30 -30 -30 -29 -29 -29 -29 -29 -29 -29 -29 -29 -29 -28 -28 -28 -28 -28 -28 -28 -28 -28
-36 -36 -36 -36 -36 -36 -36 -35 -35 -35 -35 -35 -34 -34 -34 -34 -34 -34 -34 -34 -34 -34 -34 -34 -34 -34 -34 -34 -33 -33 -33 -33 -32 -32 -31 -30 -30 -30 -30 -30 -30 -30 -30 -29 -29 -29 -29 -29 -29 -29 -29 -29 -29 -29 -28 -28 -28 -28 -28 -28 -28 -28 -28
-36 -36 -36 -36 -36 -35 -35 -35 -35 -35 -34 -34 -34 -34 -34 -34 -34 -34 -33 -33 -33 -33 -33 -33 -33 -33 -33 -33 -33 -32 -32 -32 -32 -31 -31 -30 -30 -30 -30 -30 -30 -30 -30 -30 -29 -29 -29 -29 -29 -29 -29 -29 -29 -29 -28 -28 -28 -28 -28 -28 -28 -28 -28
-36 -36 -36 -36 -36 -35 -35 -35 -35 -34 -34 -34 -34 -34 -34 -33 -33 -33 -33 -33 -32 -32 -32 -32 -32 -32 -32 -32 -32 -32 -31 -31 -31 -31 -30 -30 -30 -30 -30 -30 -30 -30 -30 -30 -30 -30 -30 -30 -29 -29 -29 -29 -29 -28 -28 -28 -28 -28 -28 -28 -28 -29 -29
-35 -35 -35 -35 -35 -35 -35 -34 -34 -34 -34 -34 -34 -34 -33 -33 -33 -33 -33 -32 -32 -32 -32 -32 -32 -32 -32 -32 -32 -31 -31 -31 -31 -31 -30 -30 -30 -30 -30 -30 -30 -30 -30 -30 -30 -30 -30 -29 -29 -29 -29 -29 -29 -28 -28 -28 -28 -29 -29 -29 -29 -29 -29
-35 -35 -35 -35 -35 -34 -34 -34 -34 -34 -34 -34 -34 -33 -33 -33 -33 -32 -32 -32 -32 -32 -32 -32 -32 -32 -31 -31 -31 -31 -31 -31 -31 -30 -30 -30 -30 -30 -30 -30 -30 -30 -30 -30 -30 -30 -30 -29 -29 -29 -29 -29 -29 -29 -29 -29 -29 -29 -29 -29 -29 -29 -29
-35 -35 -35 -35 -34 -34 -34 -34 -34 -34 -34 -33 -33 -33 -33 -32 -32 -32 -32 -32 -32 -32 -32 -32 -32 -31 -31 -31 -31 -31 -31 -31 -30 -30 -30 -30 -30 -30 -30 -30 -30 -30 -30 -30 -30 -30 -29 -29 -29 -29 -29 -29 -29 -29 -29 -29 -29 -29 -29 -29 -29 -29 -29
-34 -34 -34 -34 -34 -34 -34 -34 -34 -33 -33 -33 -33 -33 -33 -32 -32 -32 -32 -32 -32 -32 -32 -32 -31 -31 -31 -31 -31 -31 -31 -31 -31 -30 -30 -30 -30 -30 -30 -30 -30 -30 -30 -30 -30 -29 -29 -29 -29 -29 -29 -29 -29 -29 -29 -29 -29 -29 -29 -29 -29 -29 -30
-34 -34 -34 -34 -34 -33 -33 -33 -33 -33 -33 -33 -33 -33 -33 -32 -32 -32 -32 -32 -32 -32 -31 -31 -31 -31 -31 -31 -31 -31 -31 -31 -30 -30 -30 -30 -30 -30 -30 -30 -30 -30 -30 -30 -30 -29 -29 -29 -30 -29 -29 -29 -29 -29 -29 -29 -29 -29 -29 -29 -30 -30 -30
-33 -33 -33 -33 -33 -33 -33 -33 -33 -33 -33 -33 -33 -33 -33 -32 -32 -32 -32 -32 -32 -32 -31 -31 -31 -31 -31 -31 -31 -31 -31 -31 -31 -31 -30 -30 -30 -30 -30 -30 -30 -30 -30 -30 -30 -30 -30 -30 -30 -30 -30 -29 -29 -29 -29 -29 -29 -29 -29 -30 -30 -30 -30
-33 -33 -33 -33 -33 -33 -33 -33 -33 -33 -33 -33 -33 -32 -32 -32 -32 -32 -32 -32 -32 -32 -32 -31 -31 -31 -31 -31 -31 -31 -31 -31 -31 -31 -30 -30 -30 -30 -30 -30 -30 -30 -30 -30 -30 -30 -30 -30 -30 -30 -30 -30 -29 -29 -29 -29 -30 -30 -30 -30 -30 -30 -31
-33 -33 -33 -33 -32 -32 -32 -32 -32 -32 -32 -32 -32 -32 -32 -32 -32 -32 -32 -32 -32 -32 -32 -32 -31 -31 -31 -31 -31 -31 -31 -31 -31 -30 -30 -30 -30 -30 -30 -30 -30 -30 -30 -30 -30 -30 -30 -30 -30 -30 -30 -30 -30 -30 -30 -30 -30 -30 -30 -31 -31 -31 -31
-33 -33 -32 -32 -32 -32 -32 -32 -32 -32 -32 -32 -32 -32 -32 -32 -32 -32 -32 -32 -32 -32 -32 -32 -32 -31 -31 -31 -31 -31 -31 -31 -31 -30 -30 -30 -30 -30 -30 -30 -30 -30 -30 -30 -30 -30 -30 -30 -30 -30 -30 -30 -30 -30 -30 -30 -30 -31 -31 -31 -31 -31 -31
-32 -32 -32 -32 -32 -32 -32 -32 -32 -32 -32 -32 -32 -32 -32 -32 -32 -32 -32 -32 -32 -32 -32 -32 -31 -31 -31 -31 -31 -31 -31 -31 -31 -30 -30 -30 -30 -30 -30 -30 -30 -30 -30 -30 -30 -30 -30 -30 -30 -30 -30 -30 -30 -30 -31 -31 -31 -31 -31 -31 -31 -31 -32
-32 -32 -32 -32 -32 -32 -32 -32 -32 -32 -32 -32 -32 -32 -32 -32 -32 -32 -32 -32 -32 -32 -32 -32 -31 -31 -31 -31 -31 -31 -31 -31 -30 -30 -30 -30 -30 -30 -30 -30 -30 -30 -30 -30 -30 -30 -30 -30 -30 -30 -30 -31 -31 -31 -31 -31 -31 -31 -31 -32 -32 -32 -32
-32 -32 -32 -32 -32 -32 -32 -32 -32 -32 -32 -32 -32 -32 -32 -31 -31 -31 -31 -31 -31 -31 -31 -31 -31 -31 -31 -31 -31 -31 -31 -31 -30 -30 -30 -30 -30 -30 -30 -30 -30 -30 -30 -30 -30 -30 -30 -31 -31 -31 -31 -31 -31 -31 -31 -31 -32 -32 -32 -32 -32 -32 -32
-32 -32 -32 -32 -32 -32 -32 -32 -32 -32 -31 -31 -31 -31 -31 -31 -31 -31 -31 -31 -31 -31 -31 -31 -31 -31 -31 -31 -31 -31 -31 -31 -30 -30 -30 -30 -30 -30 -30 -30 -30 -30 -30 -31 -31 -31 -31 -31 -31 -31 -31 -31 -31 -32 -32 -32 -32 -32 -32 -32 -32 -32 -32
Height
5306 5309 5311 5314 5317 5321 5325 5328 5330 5334 5337 5341 5346 5349 5352 5356 5357 5360 5365 5368 5371 5375 5380 5383 5386 5389 5393 5395 5399 5406 5409 5410 5414 5417 5419 5423 5426 5428 5431 5432 5433 5434 5435 5438 5442 5444 5445 5445 5444 5444 5447 5449 5451 5454 5455 5456 5458 5460 5462 5464 5465 5466 5467
5300 5301 5303 5305 5308 5311 5315 5318 5321 5323 5325 5329 5334 5338 5341 5345 5347 5350 5355 5358 5361 5365 5369 5373 5376 5378 5381 5384 5388 5394 5398 5401 5405 5408 5410 5413 5417 5420 5423 5425 5425 5426 5426 5428 5433 5436 5436 5437 5437 5437 5439 5441 5442 5444 5446 5447 5449 5451 5453 5455 5457 5458 5459
5295 5296 5297 5298 5301 5303 5306 5309 5312 5314 5316 5319 5323 5326 5329 5333 5335 5339 5344 5348 5351 5355 5358 5362 5366 5367 5369 5372 5377 5382 5387 5391 5395 5398 5401 5404 5408 5411 5414 5416 5417 5418 5418 5419 5423 5427 5429 5429 5430 5431 5432 5433 5434 5436 5438 5439 5441 5443 5445 5447 5448 5450 5451
5290 5290 5291 5292 5294 5296 5298 5301 5303 5306 5308 5310 5312 5315 5317 5321 5323 5327 5331 5335 5340 5343 5346 5351 5355 5357 5358 5361 5366 5370 5375 5381 5385 5388 5391 5394 5398 5402 5405 5407 5409 5410 5410 5412 5414 5418 5421 5422 5423 5424 5425 5426 5427 5428 5430 5432 5433 5435 5437 5439 5440 5442 5443
5285 5286 5287 5288 5289 5290 5292 5293 5295 5297 5299 5301 5303 5304 5306 5308 5311 5314 5317 5322 5326 5330 5333 5338 5342 5346 5348 5350 5354 5360 5365 5371 5374 5377 5381 5385 5389 5393 5396 5398 5400 5401 5402 5404 5406 5410 5414 5416 5416 5417 5418 5419 5420 5421 5422 5424 5426 5427 5429 5431 5433 5434 5435
5280 5281 5282 5283 5284 5285 5286 5287 5288 5290 5291 5293 5294 5295 5296 5297 5299 5301 5304 5308 5313 5317 5320 5324 5329 5334 5336 5338 5343 5349 5355 5360 5364 5367 5371 5375 5379 5383 5386 5388 5391 5393 5394 5397 5399 5402 5406 5409 5409 5410 5411 5412 5412 5413 5414 5416 5418 5420 5422 5423 5425 5426 5427
5275 5276 5277 5278 5279 5280 5281 5282 5283 5284 5285 5285 5286 5286 5287 5288 5289 5290 5292 5296 5301 5304 5307 5311 5316 5320 5323 5327 5332 5338 5343 5348 5353 5357 5361 5365 5369 5373 5376 5378 5382 5385 5387 5389 5392 5394 5398 5402 5402 5402 5404 5404 5404 5405 5408 5409 5410 5412 5414 5416 5417 5418 5419
5269 5270 5271 5272 5273 5274 5275 5275 5276 5277 5278 5278 5278 5278 5279 5279 5280 5281 5282 5286 5289 5291 5294 5298 5303 5307 5311 5316 5321 5326 5331 5336 5342 5347 5351 5355 5359 5362 5366 5369 5373 5377 5379 5381 5384 5388 5391 5393 5395 5396 5396 5396 5397 5399 5401 5402 5403 5405 5407 5407 5409 5410 5411
5263 5264 5265 5265 5266 5267 5268 5268 5269 5269 5269 5269 5269 5269 5270 5271 5271 5272 5273 5275 5278 5280 5282 5286 5290 5295 5299 5305 5310 5314 5319 5325 5330 5335 5340 5345 5348 5351 5356 5360 5364 5368 5371 5374 5377 5380 5382 5385 5388 5389 5388 5388 5390 5391 5393 5394 5396 5399 5399 5399 5401 5402 5402
5256 5256 5257 5258 5258 5259 5259 5260 5261 5260 5260 5259 5259 5259 5260 5261 5262 5263 5264 5266 5268 5270 5272 5274 5279 5283 5287 5293 5299 5303 5307 5313 5319 5323 5329 5334 5337 5341 5346 5351 5355 5359 5363 5366 5370 5372 5374 5377 5379 5381 5381 5381 5382 5384 5386 5388 5390 5391 5392 5392 5393 5394 5395
5249 5249 5250 5250 5250 5250 5250 5251 5251 5250 5250 5250 5249 5249 5249 5251 5252 5253 5254 5256 5258 5260 5262 5263 5267 5271 5276 5281 5287 5293 5297 5302 5308 5312 5318 5323 5327 5332 5337 5342 5347 5351 5355 5359 5362 5365 5367 5369 5371 5372 5373 5373 5375 5377 5379 5381 5383 5384 5384 5385 5386 5388 5388
5243 5243 5243 5243 5243 5242 5242 5242 5241 5241 5240 5239 5239 5238 5238 5239 5241 5242 5244 5246 5247 5249 5251 5253 5256 5259 5264 5269 5275 5281 5287 5292 5297 5302 5308 5314 5318 5323 5328 5334 5339 5343 5347 5351 5354 5357 5359 5361 5363 5364 5365 5366 5368 5371 5373 5375 5375 5376 5377 5378 5380 5382 5381
5237 5237 5236 5235 5235 5235 5234 5234 5233 5231 5230 5229 5229 5228 5227 5228 5230 5232 5234 5236 5237 5238 5241 5243 5245 5248 5253 5258 5263 5270 5276 5282 5287 5292 5298 5305 5310 5315 5321 5326 5332 5336 5340 5344 5346 5349 5352 5353 5354 5356 5357 5359 5361 5364 5366 5367 5368 5368 5369 5372 5373 5375 5373
5230 5229 5228 5227 5227 5226 5226 5226 5224 5223 5222 5221 5220 5220 5219 5219 5221 5223 5225 5227 5228 5229 5230 5232 5234 5237 5242 5247 5252 5258 5265 5272 5278 5283 5290 5297 5303 5309 5314 5320 5325 5329 5333 5336 5339 5342 5344 5345 5346 5348 5350 5352 5354 5357 5359 5360 5360 5361 5363 5365 5366 5367 5365
5223 5222 5221 5220 5219 5218 5218 5217 5216 5215 5215 5214 5214 5214 5213 5213 5214 5216 5218 5220 5221 5221 5221 5222 5224 5227 5232 5237 5242 5247 5254 5261 5268 5274 5281 5289 5296 5302 5308 5313 5318 5322 5325 5328 5331 5333 5336 5337 5338 5340 5343 5346 5348 5350 5351 5352 5354 5355 5356 5358 5359 5358 5357
5216 5215 5214 5213 5211 5211 5211 5211 5210 5209 5209 5209 5209 5209 5208 5208 5209 5211 5212 5213 5214 5214 5214 5214 5216 5218 5223 5227 5233 5238 5244 5251 5259 5265 5272 5281 5288 5295 5301 5307 5311 5314 5317 5320 5323 5326 5328 5330 5332 5334 5337 5340 5341 5342 5344 5345 5347 5349 5350 5351 5352 5350 5348
5210 5209 5208 5207 5206 5206 5206 5206 5205 5205 5205 5204 5204 5204 5204 5205 5205 5206 5207 5208 5207 5207 5208 5208 5208 5211 5214 5218 5224 5229 5235 5242 5249 5257 5265 5274 5282 5289 5295 5300 5303 5306 5310 5314 5317 5319 5321 5324 5326 5328 5331 5333 5334 5335 5337 5339 5341 5342 5343 5344 5344 5343 5341
5205 5204 5204 5203 5202 5201 5201 5202 5201 5201 5200 5200 5200 5201 5201 5201 5202 5203 5203 5203 5203 5202 5202 5202 5202 5204 5207 5212 5217 5222 5229 5236 5243 5250 5260 5270 5278 5285 5290 5294 5297 5300 5304 5308 5310 5313 5316 5318 5320 5322 5324 5326 5327 5329 5331 5333 5334 5335 5336 5337 5337 5335 5335
5202 5201 5200 5199 5199 5198 5197 5197 5197 5197 5197 5197 5198 5198 5198 5198 5199 5199 5199 5199 5199 5199 5198 5198 5198 5200 5203 5208 5213 5218 5224 5231 5238 5247 5256 5265 5273 5279 5284 5287 5291 5294 5298 5302 5305 5308 5310 5312 5313 5316 5318 5320 5321 5323 5325 5326 5327 5328 5329 5329 5329 5328 5327
5199 5198 5197 5196 5195 5195 5194 5194 5194 5195 5195 5195 5196 5196 5196 5196 5196 5196 5196 5197 5197 5198 5197 5197 5198 5200 5203 5207 5211 5216 5222 5229 5236 5244 5253 5262 5268 5273 5277 5281 5285 5289 5293 5297 5300 5302 5304 5306 5308 5310 5312 5314 5316 5317 5318 5319 5320 5321 5321 5321 5321 5320 5319
5196 5195 5194 5194 5193 5192 5192 5192 5193 5194 5194 5194 5194 5194 5194 5194 5194 5194 5194 5195 5196 5197 5198 5198 5200 5202 5205 5209 5213 5218 5223 5229 5236 5242 5250 5258 5263 5267 5271 5276 5280 5285 5289 5292 5294 5297 5298 5300 5301 5303 5305 5308 5310 5311 5312 5313 5314 5314 5314 5314 5313 5312 5310
5194 5193 5192 5192 5191 5191 5191 5192 5192 5193 5193 5193 5193 5193 5193 5193 5193 5193 5194 5195 5196 5197 5198 5199 5201 5203 5206 5210 5214 5219 5224 5229 5234 5240 5247 5253 5258 5263 5268 5273 5277 5281 5284 5287 5289 5291 5292 5294 5296 5298 5300 5302 5303 5305 5306 5306 5307 5307 5306 5306 5305 5304 5302
5192 5191 5190 5190 5190 5190 5191 5191 5192 5192 5192 5193 5193 5193 5193 5193 5193 5194 5194 5195 5196 5197 5198 5200 5202 5205 5208 5211 5215 5219 5224 5228 5233 5239 5245 5250 5255 5261 5265 5269 5273 5277 5279 5281 5284 5285 5287 5288 5290 5292 5294 5296 5297 5299 5300 5300 5300 5300 5299 5298 5297 5296 5295
5191 5190 5190 5190 5190 5190 5190 5191 5191 5191 5192 5193 5194 5194 5194 5194 5194 5194 5195 5196 5197 5198 5200 5201 5204 5206 5209 5212 5215 5219 5223 5228 5233 5238 5243 5248 5254 5258 5262 5265 5269 5272 5274 5276 5278 5280 5282 5284 5285 5287 5289 5290 5292 5293 5294 5293 5293 5292 5291 5291 5290 5288 5287
5191 5191 5191 5191 5191 5191 5191 5191 5191 5191 5192 5193 5193 5194 5194 5194 5194 5195 5196 5197 5198 5200 5201 5203 5205 5207 5209 5212 5216 5219 5223 5227 5232 5237 5242 5247 5251 5255 5258 5262 5265 5267 5270 5272 5274 5276 5277 5279 5280 5282 5283 5285 5286 5287 5287 5286 5286 5285 5285 5284 5282 5281 5280
5191 5191 5191 5191 5191 5191 5191 5192 5192 5192 5193 5193 5194 5194 5194 5194 5195 5196 5197 5198 5199 5200 5202 5204 5206 5208 5210 5213 5216 5220 5223 5227 5231 5236 5240 5244 5249 5252 5256 5259 5261 5263 5266 5268 5270 5272 5273 5275 5276 5277 5278 5279 5280 5280 5279 5279 5279 5279 5278 5277 5276 5274 5273
5192 5192 5191 5191 5191 5191 5192 5192 5193 5193 5193 5194 5194 5194 5195 5195 5196 5197 5198 5199 5200 5202 5203 5205 5207 5209 5211 5214 5217 5220 5223 5227 5231 5235 5239 5243 5247 5250 5252 5255 5258 5260 5262 5264 5266 5267 5269 5270 5271 5271 5272 5273 5273 5273 5273 5272 5272 5272 5271 5270 5270 5268 5267
5192 5192 5191 5191 5191 5192 5192 5193 5194 5194 5194 5195 5195 5195 5195 5196 5197 5198 5199 5201 5202 5203 5205 5206 5208 5210 5213 5215 5218 5220 5224 5228 5231 5235 5238 5241 5244 5247 5250 5252 5254 5256 5258 5260 5261 5262 5263 5264 5265 5265 5266 5267 5267 5267 5266 5266 5266 5265 5265 5264 5264 5263 5261
5193 5193 5192 5192 5192 5193 5193 5194 5194 5194 5194 5195 5195 5195 5196 5197 5198 5199 5201 5203 5204 5205 5207 5208 5210 5212 5214 5217 5219 5222 5225 5228 5231 5234 5236 5239 5242 5244 5247 5249 5251 5252 5254 5255 5256 5257 5258 5259 5259 5260 5260 5261 5261 5261 5261 5260 5260 5260 5259 5259 5258 5257 5256
5194 5194 5193 5193 5193 5193 5194 5194 5194 5194 5195 5195 5196 5196 5197 5198 5199 5201 5202 5204 5206 5207 5209 5210 5212 5214 5216 5218 5220 5223 5225 5227 5230 5232 5234 5237 5239 5241 5243 5245 5246 5248 5249 5250 5251 5252 5253 5254 5254 5255 5255 5255 5256 5256 5255 5255 5255 5254 5254 5253 5252 5250 5249
5195 5195 5195 5194 5194 5194 5194 5194 5195 5195 5195 5196 5197 5198 5199 5200 5201 5203 5204 5206 5207 5209 5210 5212 5213 5215 5217 5219 5221 5223 5224 5226 5228 5230 5232 5234 5235 5237 5239 5240 5241 5243 5244 5245 5246 5247 5248 5249 5250 5250 5251 5251 5251 5251 5250 5250 5250 5249 5248 5247 5246 5244 5242
5196 5196 5196 5195 5195 5195 5195 5195 5196 5196 5197 5198 5198 5199 5200 5201 5203 5204 5206 5207 5208 5209 5211 5212 5214 5215 5217 5219 5220 5222 5223 5225 5226 5228 5229 5231 5232 5234 5235 5236 5238 5239 5240 5241 5242 5243 5244 5245 5245 5246 5246 5246 5246 5246 5246 5245 5245 5244 5243 5241 5240 5238 5236
5196 5197 5197 5196 5196 5196 5196 5197 5197 5198 5198 5199 5200 5200 5201 5202 5204 5205 5206 5208 5209 5210 5211 5212 5214 5215 5217 5218 5219 5221 5222 5224 5225 5226 5227 5229 5230 5232 5233 5234 5235 5236 5237 5238 5239 5240 5240 5241 5241 5241 5241 5241 5241 5241 5241 5240 5239 5238 5237 5235 5234 5231 5229
5197 5197 5197 5197 5197 5197 5197 5198 5198 5199 5199 5200 5200 5201 5202 5203 5204 5205 5207 5208 5209 5210 5211 5212 5213 5215 5216 5217 5219 5220 5221 5223 5224 5225 5226 5228 5229 5230 5231 5232 5233 5234 5234 5235 5236 5236 5236 5237 5237 5237 5237 5237 5237 5237 5236 5235 5234 5233 5231 5229 5227 5224 5221
5198 5197 5197 5198 5198 5198 5198 5199 5199 5200 5200 5201 5201 5202 5203 5203 5204 5205 5207 5208 5209 5210 5211 5212 5213 5215 5216 5217 5218 5219 5221 5222 5223 5224 5225 5226 5227 5228 5229 5230 5230 5231 5232 5232 5232 5233 5233 5233 5233 5233 5233 5233 5232 5232 5231 5230 5229 5227 5225 5222 5220 5217 5214
5199 5199 5198 5198 5198 5198 5199 5199 5200 5200 5201 5201 5202 5202 5203 5204 5205 5206 5207 5208 5209 5210 5211 5212 5213 5215 5216 5217 5218 5219 5220 5221 5222 5223 5224 5225 5226 5226 5227 5227 5228 5228 5229 5229 5229 5230 5230 5230 5230 5229 5229 5228 5228 5227 5226 5224 5223 5221 5218 5216 5213 5210 5208
Wind_Speed
48 55 62 71 79 87 95 100 100 98 96 93 90 87 85 84 84 84 85 86 87 88 88 86 85 84 83 82 81 78 76 75 72 70 69 68 67 67 67 66 65 63 62 60 58 59 61 63 65 65 65 65 64 65 65 65 65 66 66 65 65 65 64
38 43 50 57 65 73 81 89 94 97 96 95 94 92 90 88 86 84 83 84 84 85 85 85 85 85 85 85 83 81 78 76 73 71 70 68 67 67 67 66 64 62 60 57 56 57 59 61 62 63 62 62 62 62 62 62 63 63 63 63 63 64 64
36 36 39 44 50 57 65 73 81 87 91 92 92 92 92 91 89 87 85 84 84 84 84 83 81 80 82 83 84 83 81 78 75 73 71 69 68 67 68 68 66 63 60 57 55 55 57 59 60 60 60 59 59 59 59 59 59 59 60 60 61 62 63
36 37 37 37 39 42 48 54 62 70 77 82 85 86 87 88 88 88 87 86 84 84 85 84 83 80 79 79 80 80 81 80 78 76 75 73 70 68 69 69 67 65 62 59 57 55 56 58 59 57 56 57 57 56 56 56 56 57 57 58 59 60 62
34 36 36 37 37 38 39 42 46 50 57 63 70 74 78 80 82 83 84 84 83 83 84 84 84 84 83 81 80 79 78 78 79 78 77 76 73 71 70 70 68 67 65 62 60 58 58 59 59 57 55 55 55 55 55 55 56 56 57 57 57 59 60
34 34 35 36 37 38 39 40 41 43 46 50 54 59 64 69 73 76 79 80 81 81 82 83 83 84 85 85 83 81 79 78 78 78 78 78 77 74 72 70 69 68 67 63 61 61 60 60 60 57 55 54 54 53 53 53 53 54 55 55 54 55 57
35 35 36 36 37 38 39 40 41 43 45 47 50 53 56 60 64 68 72 75 77 79 81 83 83 84 85 85 84 82 81 79 79 79 80 81 80 77 75 72 70 69 67 64 63 62 62 62 61 59 56 54 54 52 51 50 49 49 51 52 53 55 56
36 37 37 38 39 40 40 41 42 43 45 47 49 52 54 57 60 63 66 69 73 77 79 82 84 85 85 85 84 82 81 79 79 79 81 82 82 80 78 75 71 69 67 65 64 63 64 65 63 59 56 55 54 52 51 50 48 47 48 51 53 54 55
38 38 38 39 40 41 42 43 43 45 46 48 50 52 53 55 57 60 62 65 69 74 79 81 83 85 85 85 84 82 81 79 78 79 81 83 83 81 79 76 71 68 67 65 64 65 67 68 64 59 57 57 55 54 53 50 47 47 48 50 51 52 53
40 40 39 40 41 42 43 44 45 47 50 51 52 53 54 55 56 58 59 61 64 68 74 79 82 83 84 85 84 83 82 80 79 80 81 82 83 81 78 77 72 67 65 64 64 66 67 67 64 61 59 58 57 57 55 50 47 47 50 51 51 50 49
41 41 41 41 42 43 45 46 48 50 52 54 55 56 56 56 56 57 58 60 61 63 66 72 77 81 83 84 84 84 83 81 80 80 80 80 81 78 75 74 71 66 64 64 64 66 66 66 65 62 61 59 57 55 53 49 48 50 52 52 50 47 45
42 41 42 42 43 45 47 49 51 52 54 56 56 57 57 58 57 57 57 58 60 62 63 65 69 74 79 83 84 84 84 82 80 80 79 78 77 75 72 70 68 65 64 65 65 65 65 65 65 63 61 60 57 53 52 51 50 53 54 52 49 45 45
40 40 42 44 45 48 49 51 52 54 55 55 54 53 54 55 54 54 54 54 56 59 62 63 65 68 72 77 81 83 85 84 81 80 79 77 74 73 70 68 67 66 65 65 64 64 63 63 62 62 62 61 58 55 54 53 53 54 54 51 48 46 46
39 41 43 45 47 49 50 51 51 52 51 50 49 48 47 47 47 47 47 46 46 49 53 58 62 65 67 70 74 79 83 84 83 81 80 77 73 71 69 66 66 66 66 65 63 61 60 58 58 59 60 61 59 56 54 53 53 53 51 49 48 47 48
39 41 42 43 44 45 45 44 44 43 42 42 41 40 40 40 40 38 36 36 37 40 45 50 55 60 63 66 68 72 77 82 84 82 80 78 74 71 69 66 66 66 64 64 62 60 57 56 55 56 57 58 58 55 54 53 53 52 51 49 49 48 50
36 36 36 36 36 35 34 34 34 34 34 34 34 34 34 33 30 28 27 29 32 37 41 45 49 52 55 59 63 66 70 76 81 83 80 77 74 72 69 68 66 64 62 62 61 59 57 55 54 55 56 56 55 54 53 53 52 51 51 50 49 50 51
27 26 26 26 27 27 26 26 27 29 30 30 29 27 26 25 23 23 24 26 30 33 36 39 42 44 48 52 56 60 63 69 77 81 79 76 72 70 68 67 64 61 60 60 59 57 55 53 53 54 54 54 53 52 52 52 52 52 51 50 50 51 53
18 19 20 21 22 22 23 23 25 26 26 24 23 22 22 21 21 22 23 25 27 29 30 33 37 40 43 47 50 54 58 63 70 75 76 72 68 66 65 64 60 57 56 56 55 53 51 49 50 51 51 50 50 50 50 51 52 51 52 52 53 53 55
15 17 19 19 19 21 22 21 19 19 19 19 19 19 20 19 19 20 22 23 24 24 23 25 29 33 37 41 44 48 53 57 63 68 69 66 64 63 63 60 56 52 51 50 49 48 47 47 48 48 47 46 46 47 48 50 51 52 53 54 54 55 57
18 18 18 18 19 20 19 14 12 14 15 16 16 17 17 16 17 18 19 20 20 20 18 17 19 23 28 32 36 40 45 49 54 60 62 61 60 60 57 53 50 47 46 45 46 45 45 45 44 44 44 44 45 46 48 49 50 52 53 53 54 57 59
19 18 16 16 17 15 12 10 10 11 12 13 14 15 14 13 12 13 15 17 18 17 16 16 18 21 24 27 31 34 36 39 45 52 56 57 56 54 50 47 45 43 42 42 43 42 41 41 42 42 43 44 45 47 48 49 50 51 51 53 55 58 59
17 14 11 12 13 10 8 8 8 8 9 9 10 10 8 6 7 10 13 15 15 12 11 15 20 24 25 26 28 30 31 33 39 46 50 50 49 46 44 44 43 40 39 39 38 38 38 39 40 41 42 43 45 46 48 49 49 50 52 54 57 58 58
13 11 8 8 9 8 8 8 9 8 7 5 4 3 4 6 7 9 11 13 13 11 10 11 16 22 26 28 28 30 31 33 35 40 43 44 43 42 41 40 39 38 37 37 36 36 36 37 38 39 40 43 45 47 48 48 49 51 54 55 57 57 58
10 9 7 6 6 7 8 10 9 8 5 2 1 2 4 5 6 8 10 12 12 12 12 12 14 16 21 26 29 30 30 31 33 36 37 38 39 38 36 36 36 36 36 35 35 35 35 35 36 38 40 42 44 46 47 49 51 53 54 55 55 56 56
8 7 6 6 6 7 8 8 7 6 4 3 3 4 5 6 6 6 8 9 10 11 12 14 15 15 17 22 27 29 30 31 32 33 34 34 34 33 32 33 34 34 35 35 34 34 34 35 36 38 39 41 44 46 49 51 52 53 53 54 54 54 54
6 8 8 8 9 9 6 3 4 4 4 4 4 6 8 8 8 8 7 6 7 9 10 12 14 15 16 18 22 26 29 30 31 32 33 33 32 31 31 31 32 32 32 33 33 34 35 36 37 39 41 44 46 49 50 51 51 52 52 52 51 51 51
6 9 10 10 9 7 3 2 3 4 5 6 6 8 9 10 11 10 8 6 6 8 11 12 13 14 15 16 18 21 24 26 26 27 28 28 28 27 27 28 28 29 29 31 33 35 37 38 40 42 44 46 48 49 49 50 50 50 49 48 48 48 49
5 7 7 7 6 4 2 3 4 6 7 6 7 8 9 11 10 8 6 5 7 9 12 13 14 14 14 15 16 18 20 20 21 22 23 23 24 25 26 26 27 29 31 33 35 37 39 40 42 44 45 46 46 47 47 47 46 45 45 45 46 46 45
4 5 5 4 4 4 4 5 5 6 5 4 4 5 7 9 8 7 7 8 9 9 10 11 12 12 12 13 14 15 16 17 18 20 21 23 24 25 26 27 28 30 31 33 34 36 37 38 40 42 42 43 43 43 43 42 42 43 43 43 43 42 42
4 3 3 5 5 5 5 5 4 4 3 4 5 6 8 9 9 9 10 10 10 9 9 9 10 10 11 11 12 12 13 15 17 19 20 21 22 23 24 25 26 27 28 30 31 32 34 36 37 39 39 39 39 39 40 40 41 41 40 39 39 40 42
2 2 2 4 4 4 3 3 3 3 5 7 7 8 9 10 10 11 11 11 10 9 8 7 8 8 9 10 10 11 12 13 14 15 17 18 18 19 21 22 23 25 26 28 29 31 32 34 35 36 36 36 37 37 38 38 37 36 36 37 38 41 42
1 1 1 2 1 1 0 1 3 5 7 8 8 7 6 6 7 8 9 9 8 8 8 7 7 8 9 10 11 11 10 9 10 11 12 13 14 16 18 20 22 24 25 27 28 30 31 32 33 33 34 35 35 35 34 33 33 34 35 37 40 41 42
3 2 2 3 3 2 2 3 4 6 7 6 5 4 3 3 3 4 4 5 6 7 7 7 7 8 9 10 10 10 8 7 7 7 9 11 13 15 17 19 21 23 24 26 27 28 29 30 31 32 32 32 31 30 30 30 32 34 37 38 39 40 40
4 3 3 3 3 3 3 2 3 4 4 3 2 1 1 1 2 2 2 3 5 6 7 7 7 8 9 9 9 8 7 7 7 8 9 11 12 14 16 18 19 21 22 24 25 26 27 28 29 29 28 27 27 27 29 31 33 35 37 37 38 38 39
5 4 3 3 3 2 2 1 1 1 1 2 2 3 3 3 3 3 3 4 5 6 7 7 8 8 9 9 9 8 8 8 8 9 10 11 12 13 15 16 17 19 20 22 23 24 25 25 25 24 24 25 26 28 30 32 34 35 35 36 37 38 40
7 4 2 3 4 4 3 2 2 1 2 3 4 5 5 5 5 4 4 5 6 7 8 9 9 9 9 9 9 9 9 9 9 9 10 11 12 13 14 15 16 18 19 20 21 21 21 21 21 22 24 26 28 30 31 32 33 34 35 36 38 39 41
Wind_Direction
252 249 248 246 245 244 244 245 248 249 249 248 247 247 247 246 244 243 242 242 242 242 242 243 244 245 246 247 249 248 248 249 250 252 254 255 256 256 255 256 257 258 258 257 256 255 254 255 256 257 257 256 256 255 254 254 253 253 253 253 253 252 251
257 253 250 249 248 247 247 247 248 250 252 252 251 251 251 251 250 249 247 246 245 244 244 243 244 245 246 247 248 247 247 247 248 250 252 254 256 255 254 253 254 254 255 255 254 254 254 255 257 258 258 257 257 256 255 254 254 254 254 253 253 252 251
261 259 256 252 250 249 249 249 249 251 253 254 255 255 255 255 255 254 253 252 250 249 248 247 246 246 246 246 247 246 246 245 246 248 250 253 255 254 252 251 251 251 252 253 254 254 255 256 257 258 258 257 256 256 256 256 255 254 254 254 253 252 251
260 260 259 258 257 254 252 251 251 251 252 254 256 256 257 257 257 256 256 255 254 253 251 250 249 248 248 248 247 247 246 246 245 247 249 250 252 252 249 248 249 249 250 252 254 255 256 256 257 258 258 257 256 257 257 256 256 255 255 254 254 253 252
256 257 258 259 259 259 258 256 254 253 253 253 254 255 256 256 256 256 255 254 253 252 252 251 250 248 248 248 248 248 248 247 247 247 248 248 250 250 248 247 247 248 249 251 253 255 256 256 256 257 258 258 257 256 255 255 255 255 255 255 255 255 255
255 255 255 255 255 255 256 256 257 256 256 255 255 255 255 255 255 254 253 252 251 250 249 248 248 248 247 247 247 247 248 247 247 247 247 247 247 247 246 246 247 248 249 251 254 255 256 256 255 256 258 259 257 256 255 255 256 255 256 256 257 258 258
254 253 253 253 253 253 253 254 254 255 256 257 256 256 255 255 255 254 252 251 250 248 246 245 244 244 245 245 245 245 246 246 246 246 246 245 246 245 244 245 246 247 249 251 254 255 256 255 254 255 257 257 256 256 257 258 258 258 258 258 258 259 259
255 254 254 253 253 253 254 254 255 257 258 257 257 256 256 255 255 254 253 251 250 248 247 245 243 241 241 241 242 243 244 244 243 244 244 243 244 244 243 244 245 246 248 251 253 254 254 253 252 253 255 256 255 257 259 259 260 260 261 260 260 260 260
260 259 259 258 258 257 257 258 259 260 261 261 260 259 258 257 256 255 254 252 250 248 247 246 244 242 240 239 239 240 241 241 241 241 241 242 243 242 241 242 244 245 247 250 252 252 253 253 251 250 252 254 254 256 258 258 259 261 262 262 261 261 261
264 265 265 264 264 263 263 263 263 264 265 265 265 264 262 260 258 256 255 253 251 249 247 246 245 243 241 239 237 237 237 238 238 238 238 239 241 241 240 240 242 244 246 248 251 252 252 253 250 248 251 252 254 257 257 256 259 263 263 263 262 261 261
265 267 268 268 268 268 268 267 267 268 268 268 268 268 266 263 260 258 255 253 252 250 247 246 244 243 242 240 238 235 234 234 235 236 236 237 239 240 240 239 241 243 246 248 251 251 252 253 250 249 252 253 255 258 257 256 261 264 263 261 260 259 261
266 268 268 268 268 268 268 269 271 272 272 272 272 270 268 266 263 260 256 253 252 250 248 247 245 243 241 240 238 236 233 232 232 234 235 236 237 239 239 238 239 242 246 248 249 250 251 253 252 250 251 253 255 257 257 256 260 262 261 259 257 258 262
269 269 268 268 268 269 270 271 273 274 274 273 272 269 267 265 263 261 258 255 252 251 249 247 246 243 241 239 238 236 233 231 231 232 234 235 236 238 238 238 238 241 246 247 247 248 250 253 253 251 251 253 254 256 257 256 256 258 257 255 255 258 264
269 269 269 270 271 272 273 273 273 272 271 270 268 266 265 264 263 261 259 256 253 251 250 248 246 244 241 239 237 236 233 231 229 231 232 234 235 236 237 238 239 242 245 246 247 247 249 252 254 252 252 252 253 256 257 255 253 254 253 253 256 262 267
271 271 272 273 273 274 274 273 272 270 268 266 264 264 264 264 263 261 258 255 252 250 250 248 246 243 241 239 237 235 233 230 229 229 231 232 233 233 234 236 239 241 243 244 245 246 247 250 253 254 255 254 254 256 255 252 251 251 252 255 260 265 270
275 275 275 275 275 276 276 274 272 269 267 265 265 266 265 263 261 258 256 255 253 251 251 250 248 244 240 236 235 233 232 229 228 228 229 230 231 231 232 234 238 240 241 241 243 244 246 249 252 255 257 255 254 253 251 249 250 253 255 259 263 268 272
282 281 280 279 279 279 278 276 273 270 270 270 269 265 261 259 259 258 257 257 256 256 255 252 248 243 237 232 230 229 228 227 226 226 227 228 229 230 231 234 238 240 240 240 242 243 246 249 252 255 255 254 253 251 249 249 252 256 258 261 266 272 275
293 292 288 285 284 283 282 278 274 270 268 265 261 258 258 261 262 258 255 257 259 260 258 253 245 238 232 228 225 223 223 223 224 224 224 226 227 228 230 234 237 238 239 240 241 242 245 249 252 253 252 251 250 249 248 250 253 257 260 263 268 273 277
307 303 297 292 289 289 288 282 272 262 255 253 255 261 265 266 262 254 252 255 258 258 254 246 238 231 227 223 220 218 218 220 222 222 221 222 224 226 230 233 235 236 237 239 241 244 247 250 251 250 248 247 246 246 248 252 255 259 262 265 269 274 278
307 302 296 293 292 291 287 273 252 244 246 253 264 271 274 273 266 258 252 251 250 247 241 231 222 219 216 213 212 213 214 218 220 219 218 219 222 225 229 232 233 235 238 242 244 245 247 248 248 246 244 243 245 247 251 255 259 262 265 268 273 277 279
304 297 292 294 296 291 273 252 241 247 257 268 279 285 286 279 265 251 244 245 244 240 232 222 213 207 203 204 207 210 213 217 218 216 215 217 220 223 227 230 233 237 240 244 245 246 245 245 244 243 243 245 248 251 254 257 261 264 268 272 275 277 278
303 297 295 302 302 284 255 255 265 271 281 291 298 298 285 256 230 222 226 235 241 238 225 214 208 203 200 201 205 207 209 212 214 214 214 215 218 221 226 231 235 238 241 243 244 244 243 243 244 245 247 249 252 254 256 259 263 267 270 273 275 276 277
306 306 303 303 298 279 268 281 287 286 295 310 310 286 238 211 204 204 209 216 222 222 214 207 205 203 202 202 203 204 205 205 207 209 210 212 217 223 229 233 235 238 241 243 243 242 241 242 244 247 250 253 255 257 259 262 266 269 272 273 275 275 275
317 313 296 279 280 288 296 297 289 280 276 269 253 263 248 224 207 202 207 210 210 210 210 212 214 212 208 206 203 201 201 201 201 204 208 213 219 225 230 233 236 239 241 241 240 239 241 243 245 248 251 253 256 258 262 266 268 270 272 273 274 273 272
318 295 273 265 288 317 318 297 272 255 243 237 262 273 264 249 232 224 224 223 222 221 220 219 217 215 212 210 205 201 200 201 203 206 211 216 221 226 230 233 236 237 238 237 237 239 242 244 246 249 252 255 259 263 266 267 268 270 271 272 271 271 271
292 267 263 273 297 324 329 267 231 236 242 251 268 266 255 248 245 244 245 241 232 225 220 216 212 208 208 209 206 202 203 205 206 209 213 217 221 226 229 231 232 233 234 235 237 240 244 247 250 253 256 259 261 264 265 266 268 268 269 269 269 270 271
256 260 270 285 304 324 328 209 216 247 259 261 264 259 251 246 247 250 253 247 215 194 191 191 189 188 190 192 192 194 199 203 206 209 213 217 220 223 225 226 228 231 234 237 240 243 246 249 252 255 257 258 260 262 264 266 266 266 266 267 269 270 272
261 279 291 300 308 309 272 240 249 260 264 264 258 248 238 237 239 237 224 198 171 166 170 173 174 175 178 182 186 191 197 202 205 208 211 214 216 220 223 227 231 234 237 241 243 245 248 250 252 254 256 258 260 262 263 263 264 265 266 268 269 271 274
259 292 291 278 270 259 255 263 268 265 259 248 235 222 209 208 207 192 169 153 148 154 160 163 166 172 176 181 187 190 193 197 201 205 209 213 218 223 227 231 235 238 241 243 246 248 250 252 253 255 257 258 259 260 261 262 264 266 267 268 271 274 278
239 260 251 253 263 268 268 269 268 253 217 192 185 169 159 161 160 152 146 144 144 149 155 159 164 170 175 180 185 188 193 199 204 209 214 219 224 228 233 237 240 243 245 247 249 250 252 253 254 255 256 257 259 260 262 263 265 266 268 271 275 279 281
235 237 249 259 266 271 271 259 233 194 169 163 159 147 139 141 142 140 141 146 150 156 164 172 174 175 176 179 183 189 197 204 209 214 219 225 231 236 240 244 246 247 249 249 250 251 252 253 254 255 256 258 259 261 262 263 265 268 272 276 279 281 283
308 326 338 350 344 307 248 168 162 153 146 145 148 147 145 147 149 147 147 151 157 166 179 187 187 182 181 183 188 194 201 206 212 219 225 231 238 242 244 246 247 247 248 249 249 250 252 253 254 256 257 258 259 260 262 266 270 274 277 280 282 283 285
322 336 3 23 35 57 92 116 127 132 136 141 147 157 169 173 167 161 159 159 164 176 190 199 198 191 188 191 195 201 208 216 226 232 234 235 238 239 240 242 243 244 245 247 248 250 251 253 254 255 256 258 260 263 267 272 275 278 280 282 284 285 286
344 331 327 349 16 47 70 100 125 132 138 147 160 191 222 258 266 244 211 188 187 195 203 207 205 200 200 203 206 211 223 237 244 244 240 237 237 239 241 243 244 245 247 248 250 251 252 253 254 255 257 260 265 270 274 277 279 281 283 284 286 288 289
22 4 337 326 332 360 33 64 115 144 164 193 233 256 265 274 276 263 239 215 208 211 213 214 215 213 214 216 217 221 232 243 247 247 245 244 245 247 249 249 249 250 250 250 251 251 251 252 255 258 263 269 274 277 279 281 282 284 286 288 289 290 290
39 32 1 317 298 292 296 294 287 278 253 242 251 259 264 269 271 263 245 225 217 218 219 220 221 221 221 222 223 227 235 244 249 252 255 256 257 256 255 254 253 252 251 251 251 252 254 258 264 269 274 278 280 281 283 285 287 288 289 289 290 291 292